Mora, MN

10:14 PM CDT on April 28, 2017 (GMT -0500)
Mora Municipal

Weather History for KJMR - September, 2014

Change the Weather History Date:

Wednesday, September 3, 2014

  Actual Average Record
Temperature  
Mean Temperature 58 °F -  
Max Temperature 64 °F 75 °F 93 °F (1960)
Min Temperature 53 °F 50 °F 27 °F (1974)
Degree Days  
Heating Degree Days 6    
Growing Degree Days 8 (Base 50)    
Moisture  
Dew Point 56 °F    
Average Humidity 87    
Maximum Humidity 100    
Minimum Humidity 73    
Precipitation  
Precipitation 1.96 in - - ()
Sea Level Pressure  
Sea Level Pressure 29.82 in    
Wind  
Wind Speed 4 mph (SSE)    
Max Wind Speed 22 mph    
Max Gust Speed 39 mph    
Visibility 9 miles    
Events Rain , Thunderstorm    
Averages and records for this station are not official NWS values.
T = Trace of Precipitation, MM = Missing Value Source: NWS Daily Summary

Daily Weather History Graph

Daily Weather History Graph

Search for Another Location

Airport or City:

Trip Planner

Search our weather history database for the weather conditions in past years. The results will help you decide how hot, cold, wet, or windy it might be!

Date:

Astronomy

Sep. 03, 2014 Rise Set
Actual Time 6:36 AM CDT 7:47 PM CDT
Civil Twilight 6:05 AM CDT 8:18 PM CDT
Nautical Twilight 5:28 AM CDT 8:54 PM CDT
Astronomical Twilight 4:49 AM CDT 9:33 PM CDT
Moon 3:40 PM CDT (9/3) 12:21 AM CDT (9/3)
Length of Visible Light 14h 12m
Length of Day
13h 10m
Waxing Gibbous, 64% of the Moon is Illuminated
Sep 3
Waxing Gibbous
Sep 8
Full
Sep 15
Last Quarter
Sep 24
New
Oct 1
First Quarter

Hourly Weather History & Observations

Time (CDT) Temp. Dew Point Humidity Pressure Visibility Wind Dir Wind Speed Gust Speed Precip Events Conditions
12:13 AM 60.8 °F 53.6 °F 77% 29.86 in 10.0 mi SW 4.6 mph - N/A   Clear
12:33 AM 60.8 °F 53.6 °F 77% 29.86 in 10.0 mi SW 4.6 mph - N/A   Clear
12:52 AM 60.8 °F 53.6 °F 77% 29.86 in 10.0 mi SW 4.6 mph - N/A   Clear
1:13 AM 60.8 °F 53.6 °F 77% 29.86 in 10.0 mi SW 4.6 mph - N/A   Clear
1:33 AM 59.0 °F 53.6 °F 82% 29.86 in 10.0 mi SW 4.6 mph - N/A   Clear
1:53 AM 60.8 °F 53.6 °F 77% 29.86 in 10.0 mi SW 4.6 mph - N/A   Clear
2:13 AM 60.8 °F 53.6 °F 77% 29.86 in 10.0 mi SW 3.5 mph - N/A   Scattered Clouds
2:33 AM 59.0 °F 51.8 °F 77% 29.86 in 10.0 mi Calm Calm - N/A   Clear
2:53 AM 57.2 °F 51.8 °F 82% 29.86 in 10.0 mi Calm Calm - N/A   Clear
3:13 AM 55.4 °F 51.8 °F 88% 29.86 in 10.0 mi Calm Calm - N/A   Clear
3:33 AM 55.4 °F 53.6 °F 94% 29.86 in 10.0 mi Calm Calm - N/A   Clear
3:53 AM 55.4 °F 53.6 °F 94% 29.86 in 10.0 mi Calm Calm - N/A   Scattered Clouds
4:13 AM 53.6 °F 51.8 °F 94% 29.86 in 10.0 mi Calm Calm - N/A   Clear
4:33 AM 53.6 °F 51.8 °F 94% 29.86 in 10.0 mi Calm Calm - N/A   Clear
4:52 AM 53.6 °F 51.8 °F 94% 29.85 in 10.0 mi Calm Calm - N/A   Clear
5:13 AM 55.4 °F 53.6 °F 94% 29.85 in 10.0 mi Calm Calm - N/A   Scattered Clouds
5:33 AM 55.4 °F 53.6 °F 94% 29.86 in 10.0 mi South 3.5 mph - N/A   Clear
5:53 AM 55.4 °F 53.6 °F 94% 29.86 in 10.0 mi South 3.5 mph - N/A   Clear
6:13 AM 55.4 °F 53.6 °F 94% 29.87 in 10.0 mi SSW 3.5 mph - N/A   Clear
6:33 AM 55.4 °F 53.6 °F 94% 29.87 in 10.0 mi South 4.6 mph - N/A   Clear
6:53 AM 55.4 °F 53.6 °F 94% 29.87 in 10.0 mi Calm Calm - N/A   Clear
7:13 AM 55.4 °F 53.6 °F 94% 29.87 in 10.0 mi Calm Calm - N/A   Clear
7:33 AM 55.4 °F 53.6 °F 94% 29.87 in 10.0 mi South 3.5 mph - N/A   Clear
7:53 AM 57.2 °F 53.6 °F 88% 29.87 in 10.0 mi South 3.5 mph - N/A   Clear
8:13 AM 59.0 °F 55.4 °F 88% 29.87 in 10.0 mi South 6.9 mph - N/A   Clear
8:33 AM 59.0 °F 55.4 °F 88% 29.87 in 10.0 mi South 4.6 mph - N/A   Clear
8:53 AM 60.8 °F 55.4 °F 82% 29.86 in 10.0 mi South 6.9 mph - N/A   Clear
9:13 AM 60.8 °F 55.4 °F 82% 29.86 in 10.0 mi South 5.8 mph - N/A   Clear
9:33 AM 62.6 °F 57.2 °F 82% 29.87 in 10.0 mi South 6.9 mph - N/A   Clear
9:53 AM 62.6 °F 57.2 °F 82% 29.87 in 10.0 mi SSW 5.8 mph - N/A   Clear
10:13 AM 62.6 °F 57.2 °F 82% 29.87 in 10.0 mi South 5.8 mph - N/A Thunderstorm Clear
10:33 AM 64.4 °F 59.0 °F 83% 29.85 in 10.0 mi SSE 3.5 mph - N/A   Clear
10:53 AM 64.4 °F 59.0 °F 83% 29.85 in 10.0 mi South 6.9 mph - N/A   Clear
11:13 AM 64.4 °F 55.4 °F 73% 29.85 in 10.0 mi South 4.6 mph - N/A   Clear
11:33 AM 64.4 °F 55.4 °F 73% 29.84 in 10.0 mi South 4.6 mph - N/A   Clear
11:53 AM 64.4 °F 55.4 °F 73% 29.85 in 10.0 mi South 6.9 mph - N/A   Clear
12:13 PM 64.4 °F 55.4 °F 73% 29.85 in 10.0 mi Calm Calm - N/A   Clear
12:33 PM 64.4 °F 55.4 °F 73% 29.83 in 10.0 mi Calm Calm - N/A   Clear
12:53 PM 62.6 °F 57.2 °F 82% 29.82 in 10.0 mi Calm Calm - N/A   Clear
1:13 PM 62.6 °F 57.2 °F 82% 29.85 in 10.0 mi Calm Calm - N/A   Scattered Clouds
1:33 PM 62.6 °F 55.4 °F 77% 29.81 in 10.0 mi South 8.1 mph - N/A Rain Light Rain
1:53 PM 60.8 °F 55.4 °F 82% 29.80 in 10.0 mi Calm Calm - 0.01 in Rain , Thunderstorm Thunderstorms and Rain
2:13 PM 59.0 °F 53.6 °F 82% 29.87 in 7.0 mi WSW 5.8 mph 25.3 mph 0.04 in Rain , Thunderstorm Heavy Thunderstorms and Rain
2:33 PM 60.8 °F 53.6 °F 77% 29.81 in 3.0 mi Calm Calm - 0.27 in Rain , Thunderstorm Heavy Thunderstorms and Rain
2:52 PM 59.0 °F 55.4 °F 88% 29.85 in 10.0 mi WNW 3.5 mph - 0.29 in Rain , Thunderstorm Thunderstorms and Rain
3:13 PM 59.0 °F 55.4 °F 88% 29.77 in 7.0 mi SE 6.9 mph 16.1 mph 0.04 in Rain , Thunderstorm Rain
3:33 PM 60.8 °F 55.4 °F 82% 29.76 in 10.0 mi ESE 4.6 mph - 0.04 in Rain Light Rain
3:53 PM 64.4 °F 60.8 °F 88% 29.77 in 10.0 mi Calm Calm - 0.04 in   Clear
4:13 PM 64.4 °F 62.6 °F 94% 29.75 in 10.0 mi East 3.5 mph - N/A Thunderstorm Scattered Clouds
4:32 PM 64.4 °F 62.6 °F 94% 29.74 in 10.0 mi SE 11.5 mph 17.3 mph 0.01 in   Mostly Cloudy
4:52 PM 64.4 °F 60.8 °F 88% 29.72 in 10.0 mi ESE 11.5 mph 16.1 mph 0.01 in Rain Light Rain
5:12 PM 64.4 °F 60.8 °F 88% 29.67 in 10.0 mi East 11.5 mph 23.0 mph N/A   Overcast
5:19 PM 64.4 °F 60.8 °F 88% 29.72 in 10.0 mi North 5.8 mph 23.0 mph N/A Thunderstorm Thunderstorm
5:52 PM 62.6 °F 59.0 °F 88% 29.73 in 1.5 mi East 3.5 mph 26.5 mph 0.56 in Rain , Thunderstorm Heavy Thunderstorms and Rain
6:13 PM 62.6 °F 60.8 °F 94% 29.75 in 10.0 mi East 4.6 mph - 0.08 in Rain Rain
6:33 PM 60.8 °F 59.0 °F 94% 29.70 in 10.0 mi East 16.1 mph 21.9 mph 0.17 in Rain Rain
6:52 PM 60.8 °F 59.0 °F 94% 29.74 in 5.0 mi North 21.9 mph 39.1 mph 0.24 in Rain Heavy Rain
7:12 PM 59.0 °F 57.2 °F 94% 29.76 in 1.2 mi East 8.1 mph 16.1 mph 0.63 in Rain , Thunderstorm Heavy Thunderstorms and Rain
7:32 PM 60.8 °F 59.0 °F 94% 29.73 in 5.0 mi East 4.6 mph 19.6 mph 0.81 in Rain , Thunderstorm Light Thunderstorms and Rain
7:50 PM 59.0 °F 59.0 °F 100% 29.71 in 10.0 mi East 5.8 mph 23.0 mph 0.81 in Thunderstorm Mostly Cloudy
8:12 PM 60.8 °F 59.0 °F 94% 29.72 in 10.0 mi ESE 5.8 mph - N/A   Mostly Cloudy
8:33 PM 62.6 °F 60.8 °F 94% 29.74 in 10.0 mi Calm Calm - N/A   Mostly Cloudy
8:53 PM 62.6 °F 60.8 °F 94% 29.76 in 10.0 mi Calm Calm - N/A   Overcast
9:13 PM 62.6 °F 60.8 °F 94% 29.77 in 10.0 mi ESE 5.8 mph - N/A   Overcast
9:33 PM 62.6 °F 60.8 °F 94% 29.77 in 10.0 mi Calm Calm - N/A   Overcast
9:53 PM 62.6 °F 60.8 °F 94% 29.76 in 10.0 mi Calm Calm - N/A   Overcast
10:13 PM 62.6 °F 60.8 °F 94% 29.77 in 10.0 mi Calm Calm - N/A   Overcast
10:53 PM 62.6 °F 60.8 °F 94% 29.77 in 10.0 mi Calm Calm - N/A   Overcast
11:13 PM 62.6 °F 60.8 °F 94% 29.77 in 10.0 mi Calm Calm - N/A   Overcast
11:33 PM 62.6 °F 60.8 °F 94% 29.77 in 10.0 mi Calm Calm - N/A   Overcast
11:53 PM 62.6 °F 60.8 °F 94% 29.78 in 10.0 mi Calm Calm - N/A   Overcast